User: anonymous   Login
Location: Unspecified
(0.0000°N, 0.0000°E)
Time: 14:32:21
(UTC+00:00)
Language:

OPTUS D2 - Orbit

View from above orbital plane
View from above orbital plane
View from above satellite
View from above satellite

Ground track
Ground track

The orbit data is extracted from the following two-line orbital elements,

1 32252U 07044A   14296.64507545 -.00000184  00000-0  00000+0 0  5390
2 32252 000.0289 125.4573 0002931 083.5621 207.2167 01.00272350 25824
Epoch (UTC): 23 October 2014 15:28:54
Eccentricity: 0.0002931
inclination: 0.0289°
perigee height: 35774 km
apogee height: 35798 km
right ascension of ascending node: 125.4573°
argument of perigee: 83.5621°
revolutions per day: 1.00272350
mean anomaly at epoch: 207.2167°
orbit number at epoch: 2582

The dashed part of the orbit path shows where the satellite is in the earth's shadow,  

DLR